Location: Aiyekoto
(8.4333°N, 4.3667°E)
Time: 04:32:16
(UTC+00:00)

Hubble Space Telescope - Pass Details

Date: 19 August 2020
Orbit: 536 x 540 km, 28.5° (Epoch: 22 September)

Event Time Altitude Azimuth Distance (km) Brightness Sun altitude
Rises 19:36:14 0° 231° (SW) 2,667 4.8 -24.5°
Reaches altitude 10° 19:38:32 10° 226° (SW) 1,776 3.7 -25.1°
Enters shadow 19:40:21 24° 216° (SW) 1,125 2.5 -25.5°
